Regional Weather Roundup
Issued by NWS

Home | Current Version | Previous Version | Text Only | Print | Product List | Glossary Off
Versions: 1 2 3 4 5 6 7 8 9 10 11 12 13 14 15 16 17 18 19 20 21 22 23 24 25 26 27 28 29 30 31 32 33 34 35 36 37 38 39 40 41 42 43 44 45 46 47 48 49 50

000
ASUS43 KBIS 252120
RWRND

NORTH DAKOTA REGIONAL WEATHER ROUNDUP
NATIONAL WEATHER SERVICE BISMARCK ND
400 PM CDT FRI JUL 25 2014

NOTE: "FAIR" INDICATES FEW OR NO CLOUDS BELOW 12,000 FEET WITH NO
SIGNIFICANT WEATHER AND/OR OBSTRUCTIONS TO VISIBILITY.


NDZ001>003-009>011-017-252200-
NORTHWEST NORTH DAKOTA

CITY           SKY/WX    TMP DP  RH WIND       PRES   REMARKS
WILLISTON      SUNNY     83  37  19 SW20G28   29.77F
MINOT          SUNNY     77  46  33 W16       29.79F
MINOT AFB      SUNNY     76  52  43 W9        29.78F
$$

NDZ018>021-031>035-040>046-252200-
SOUTHWEST NORTH DAKOTA

CITY           SKY/WX    TMP DP  RH WIND       PRES   REMARKS
BISMARCK       SUNNY     82  48  30 W8        29.83F
DICKINSON      SUNNY     81  43  26 SW13      29.84F
GARRISON         N/A     75  52  44 SW10      29.82F
HETTINGER ARPT SUNNY     81  44  27 CALM      29.88F
$$

NDZ004>008-012>016-024-026-027-054-252200-
NORTHEAST NORTH DAKOTA

CITY           SKY/WX    TMP DP  RH WIND       PRES   REMARKS
GRAND FORKS    MOSUNNY   81  60  48 NW14      29.73R
GRND FRKS AFB  SUNNY     81  57  43 NW15      29.75S
DEVILS LAKE    SUNNY     77  55  47 NW9       29.76F
$$

NDZ022-023-025-028>030-036>039-047>053-252200-
SOUTHEAST NORTH DAKOTA

CITY           SKY/WX    TMP DP  RH WIND       PRES   REMARKS
FARGO          CLOUDY    80  68  66 NW8       29.75S
JAMESTOWN      SUNNY     79  50  36 N12       29.80F
$$



USA.gov is the U.S. government's official web portal to all federal, state and local government web resources and services.